Time,TemperatureF,DewpointF,PressureIn,WindDirection,WindDirectionDegrees,WindSpeedMPH,WindSpeedGustMPH,Humidity,HourlyPrecipIn,Conditions,Clouds,dailyrainin,SolarRadiationWatts/m^2,SoftwareType,DateUTC
2013-06-20 00:01:00,89.0,39.0,29.90,SSE,166,14.0,25.0,17,-99.99,,,-99.99,0.000000,,2013-06-20 06:01:00,
2013-06-20 00:11:00,88.0,42.0,29.90,South,174,17.0,29.0,19,-99.99,,,-99.99,0.000000,,2013-06-20 06:11:00,
2013-06-20 00:22:00,88.0,44.0,29.90,South,174,21.0,33.0,21,-99.99,,,-99.99,0.000000,,2013-06-20 06:22:00,
2013-06-20 00:33:00,88.0,44.0,29.90,South,174,21.0,33.0,21,-99.99,,,-99.99,0.000000,,2013-06-20 06:33:00,
2013-06-20 00:43:00,88.0,43.0,29.91,South,183,20.0,31.0,21,-99.99,,,-99.99,0.000000,,2013-06-20 06:43:00,
2013-06-20 00:53:00,88.0,44.0,29.92,South,177,20.0,29.0,21,-99.99,,,-99.99,0.000000,,2013-06-20 06:53:00,
2013-06-20 01:01:00,88.0,44.0,29.92,South,177,20.0,29.0,21,-99.99,,,-99.99,0.000000,,2013-06-20 07:01:00,
2013-06-20 01:12:00,88.0,44.0,29.93,South,179,20.0,34.0,22,-99.99,,,-99.99,0.000000,,2013-06-20 07:12:00,
2013-06-20 01:22:00,87.0,45.0,29.92,South,185,20.0,36.0,22,-99.99,,,-99.99,0.000000,,2013-06-20 07:22:00,
2013-06-20 01:34:00,87.0,45.0,29.92,South,185,20.0,36.0,22,-99.99,,,-99.99,0.000000,,2013-06-20 07:34:00,
2013-06-20 01:44:00,87.0,45.0,29.92,SSW,195,19.0,33.0,23,-99.99,,,-99.99,0.000000,,2013-06-20 07:44:00,
2013-06-20 01:53:00,87.0,44.0,29.92,SSW,200,21.0,33.0,22,-99.99,,,-99.99,0.000000,,2013-06-20 07:53:00,
2013-06-20 02:02:00,87.0,44.0,29.92,SSW,200,21.0,33.0,22,-99.99,,,-99.99,0.000000,,2013-06-20 08:02:00,
2013-06-20 02:11:00,86.0,43.0,29.93,SSW,205,19.0,33.0,22,-99.99,,,-99.99,0.000000,,2013-06-20 08:11:00,
2013-06-20 02:22:00,86.0,43.0,29.93,SSW,205,20.0,34.0,22,-99.99,,,-99.99,0.000000,,2013-06-20 08:22:00,
2013-06-20 02:34:00,86.0,43.0,29.93,SSW,205,20.0,34.0,22,-99.99,,,-99.99,0.000000,,2013-06-20 08:34:00,
2013-06-20 02:43:00,86.0,43.0,29.93,SSW,195,21.0,33.0,22,-99.99,,,-99.99,0.000000,,2013-06-20 08:43:00,
2013-06-20 02:53:00,86.0,44.0,29.93,SSW,202,21.0,36.0,23,-99.99,,,-99.99,0.000000,,2013-06-20 08:53:00,
2013-06-20 03:02:00,86.0,44.0,29.93,SSW,202,21.0,36.0,23,-99.99,,,-99.99,0.000000,,2013-06-20 09:02:00,
2013-06-20 03:12:00,85.0,44.0,29.93,SSW,207,20.0,34.0,23,-99.99,,,-99.99,0.000000,,2013-06-20 09:12:00,
2013-06-20 03:22:00,85.0,44.0,29.92,SSW,206,20.0,34.0,24,-99.99,,,-99.99,0.000000,,2013-06-20 09:22:00,
2013-06-20 03:33:00,85.0,44.0,29.92,SSW,206,20.0,34.0,24,-99.99,,,-99.99,0.000000,,2013-06-20 09:33:00,
2013-06-20 03:42:00,84.0,45.0,29.92,SSW,213,16.0,31.0,25,-99.99,,,-99.99,0.000000,,2013-06-20 09:42:00,
2013-06-20 03:52:00,84.0,44.0,29.92,SW,214,19.0,32.0,24,-99.99,,,-99.99,0.000000,,2013-06-20 09:52:00,
2013-06-20 04:01:00,84.0,44.0,29.92,SW,214,19.0,32.0,24,-99.99,,,-99.99,0.000000,,2013-06-20 10:01:00,
2013-06-20 04:11:00,84.0,44.0,29.93,SSW,211,17.0,31.0,24,-99.99,,,-99.99,0.000000,,2013-06-20 10:11:00,
2013-06-20 04:22:00,84.0,43.0,29.93,SSW,204,13.0,22.0,23,-99.99,,,-99.99,0.000000,,2013-06-20 10:22:00,
2013-06-20 04:33:00,84.0,43.0,29.93,SSW,204,13.0,22.0,23,-99.99,,,-99.99,0.000000,,2013-06-20 10:33:00,
2013-06-20 04:43:00,84.0,43.0,29.93,SSW,206,13.0,21.0,23,-99.99,,,-99.99,0.000000,,2013-06-20 10:43:00,
2013-06-20 04:53:00,84.0,43.0,29.94,SSW,208,10.0,21.0,23,-99.99,,,-99.99,0.000000,,2013-06-20 10:53:00,
2013-06-20 05:02:00,84.0,43.0,29.94,SSW,208,10.0,21.0,23,-99.99,,,-99.99,0.000000,,2013-06-20 11:02:00,
2013-06-20 05:11:00,82.0,44.0,29.94,SSW,197,10.0,21.0,25,-99.99,,,-99.99,0.000000,,2013-06-20 11:11:00,
2013-06-20 05:22:00,79.0,45.0,29.95,WNW,295,4.0,8.0,29,-99.99,,,-99.99,0.000000,,2013-06-20 11:22:00,
2013-06-20 05:34:00,79.0,45.0,29.95,WNW,295,4.0,8.0,29,-99.99,,,-99.99,0.000000,,2013-06-20 11:34:00,
2013-06-20 05:42:00,77.0,46.0,29.96,WNW,289,4.0,10.0,33,-99.99,,,-99.99,0.000000,,2013-06-20 11:42:00,
2013-06-20 05:53:00,77.0,46.0,29.96,WNW,291,5.0,10.0,33,-99.99,,,-99.99,0.000000,,2013-06-20 11:53:00,
2013-06-20 06:02:00,77.0,46.0,29.96,WNW,291,5.0,10.0,33,-99.99,,,-99.99,0.000000,,2013-06-20 12:02:00,
2013-06-20 06:11:00,77.0,45.0,29.96,WNW,300,7.0,17.0,32,-99.99,,,-99.99,0.000000,,2013-06-20 12:11:00,
2013-06-20 06:22:00,80.0,45.0,29.97,WNW,303,6.0,14.0,29,-99.99,,,-99.99,1.390000,,2013-06-20 12:22:00,
2013-06-20 06:34:00,80.0,45.0,29.97,WNW,303,6.0,14.0,29,-99.99,,,-99.99,1.390000,,2013-06-20 12:34:00,
2013-06-20 06:43:00,77.0,45.0,29.97,NNW,337,8.0,11.0,32,-99.99,,,-99.99,8.370000,,2013-06-20 12:43:00,
2013-06-20 06:53:00,76.0,46.0,29.98,NNW,343,8.0,9.0,33,-99.99,,,-99.99,30.680000,,2013-06-20 12:53:00,
2013-06-20 07:02:00,76.0,46.0,29.98,NNW,343,8.0,9.0,33,-99.99,,,-99.99,30.680000,,2013-06-20 13:02:00,
2013-06-20 07:11:00,77.0,46.0,29.98,North,351,6.0,10.0,33,-99.99,,,-99.99,62.060001,,2013-06-20 13:11:00,
2013-06-20 07:22:00,78.0,47.0,29.99,NW,325,5.0,8.0,32,-99.99,,,-99.99,78.800003,,2013-06-20 13:22:00,
2013-06-20 07:33:00,78.0,47.0,29.99,NW,325,5.0,8.0,32,-99.99,,,-99.99,78.800003,,2013-06-20 13:33:00,
2013-06-20 07:42:00,79.0,48.0,29.99,NW,319,3.0,7.0,33,-99.99,,,-99.99,158.990005,,2013-06-20 13:42:00,
2013-06-20 07:53:00,80.0,48.0,30.00,WNW,298,4.0,9.0,32,-99.99,,,-99.99,218.960007,,2013-06-20 13:53:00,
2013-06-20 08:01:00,80.0,48.0,30.00,WNW,298,4.0,9.0,32,-99.99,,,-99.99,218.960007,,2013-06-20 14:01:00,
2013-06-20 08:11:00,81.0,47.0,30.00,NW,309,5.0,7.0,30,-99.99,,,-99.99,270.570007,,2013-06-20 14:11:00,
2013-06-20 08:22:00,83.0,46.0,30.01,ESE,104,2.0,6.0,27,-99.99,,,-99.99,320.079987,,2013-06-20 14:22:00,
2013-06-20 08:32:00,83.0,46.0,30.01,ESE,104,2.0,6.0,27,-99.99,,,-99.99,320.079987,,2013-06-20 14:32:00,
2013-06-20 08:42:00,85.0,46.0,30.01,SSW,202,2.0,4.0,25,-99.99,,,-99.99,368.890015,,2013-06-20 14:42:00,
2013-06-20 08:53:00,85.0,46.0,30.01,SSW,202,2.0,4.0,25,-99.99,,,-99.99,368.890015,,2013-06-20 14:53:00,
2013-06-20 09:02:00,85.0,46.0,30.01,SSW,202,2.0,4.0,25,-99.99,,,-99.99,368.890015,,2013-06-20 15:02:00,
2013-06-20 09:11:00,87.0,44.0,30.02,ESE,102,6.0,14.0,22,-99.99,,,-99.99,447.690002,,2013-06-20 15:11:00,
2013-06-20 09:22:00,88.0,41.0,30.02,SE,125,3.0,10.0,19,-99.99,,,-99.99,421.890015,,2013-06-20 15:22:00,
2013-06-20 09:33:00,88.0,41.0,30.02,SE,125,3.0,10.0,19,-99.99,,,-99.99,421.890015,,2013-06-20 15:33:00,
2013-06-20 09:43:00,89.0,38.0,30.02,SE,132,7.0,14.0,17,-99.99,,,-99.99,536.950012,,2013-06-20 15:43:00,
2013-06-20 09:53:00,89.0,36.0,30.02,SE,138,7.0,14.0,15,-99.99,,,-99.99,596.219971,,2013-06-20 15:53:00,
2013-06-20 10:01:00,89.0,36.0,30.02,SE,138,7.0,14.0,15,-99.99,,,-99.99,596.219971,,2013-06-20 16:01:00,
2013-06-20 10:11:00,90.0,36.0,30.01,SE,142,10.0,16.0,14,-99.99,,,-99.99,637.359985,,2013-06-20 16:11:00,
2013-06-20 10:22:00,90.0,36.0,30.01,SE,142,10.0,16.0,14,-99.99,,,-99.99,637.359985,,2013-06-20 16:22:00,
2013-06-20 10:33:00,90.0,36.0,30.01,SE,142,10.0,16.0,14,-99.99,,,-99.99,637.359985,,2013-06-20 16:33:00,
2013-06-20 10:42:00,91.0,36.0,30.01,SE,132,10.0,20.0,14,-99.99,,,-99.99,716.859985,,2013-06-20 16:42:00,
2013-06-20 10:52:00,92.0,36.0,30.01,SE,130,10.0,20.0,14,-99.99,,,-99.99,792.869995,,2013-06-20 16:52:00,
2013-06-20 11:01:00,92.0,36.0,30.01,SE,130,10.0,20.0,14,-99.99,,,-99.99,792.869995,,2013-06-20 17:01:00,
2013-06-20 11:11:00,92.0,36.0,30.01,ESE,116,11.0,24.0,14,-99.99,,,-99.99,781.710022,,2013-06-20 17:11:00,
2013-06-20 11:22:00,93.0,35.0,30.00,ESE,109,8.0,20.0,12,-99.99,,,-99.99,823.549988,,2013-06-20 17:22:00,
2013-06-20 11:32:00,93.0,35.0,30.00,ESE,109,8.0,20.0,12,-99.99,,,-99.99,823.549988,,2013-06-20 17:32:00,
2013-06-20 11:43:00,95.0,35.0,30.00,SE,125,7.0,13.0,12,-99.99,,,-99.99,826.340027,,2013-06-20 17:43:00,
2013-06-20 11:53:00,95.0,35.0,30.00,ENE,65,4.0,11.0,12,-99.99,,,-99.99,857.020020,,2013-06-20 17:53:00,
2013-06-20 12:01:00,95.0,35.0,30.00,ENE,65,4.0,11.0,12,-99.99,,,-99.99,857.020020,,2013-06-20 18:01:00,
2013-06-20 12:11:00,96.0,35.0,30.00,West,267,5.0,13.0,11,-99.99,,,-99.99,874.460022,,2013-06-20 18:11:00,
2013-06-20 12:22:00,96.0,35.0,29.99,WNW,286,9.0,21.0,12,-99.99,,,-99.99,886.309998,,2013-06-20 18:22:00,
2013-06-20 12:33:00,96.0,35.0,29.99,WNW,286,9.0,21.0,12,-99.99,,,-99.99,886.309998,,2013-06-20 18:33:00,
2013-06-20 12:43:00,96.0,35.0,29.99,WNW,293,12.0,26.0,12,-99.99,,,-99.99,907.229980,,2013-06-20 18:43:00,
2013-06-20 12:53:00,96.0,35.0,29.99,West,276,10.0,23.0,11,-99.99,,,-99.99,914.900024,,2013-06-20 18:53:00,
2013-06-20 13:01:00,96.0,35.0,29.99,West,276,10.0,23.0,11,-99.99,,,-99.99,914.900024,,2013-06-20 19:01:00,
2013-06-20 13:11:00,96.0,35.0,29.98,WNW,287,11.0,23.0,11,-99.99,,,-99.99,914.200012,,2013-06-20 19:11:00,
2013-06-20 13:22:00,97.0,34.0,29.98,WNW,294,12.0,22.0,11,-99.99,,,-99.99,914.900024,,2013-06-20 19:22:00,
2013-06-20 13:34:00,97.0,34.0,29.98,WNW,294,12.0,22.0,11,-99.99,,,-99.99,914.900024,,2013-06-20 19:34:00,
2013-06-20 13:43:00,97.0,35.0,29.98,West,262,9.0,21.0,11,-99.99,,,-99.99,908.630005,,2013-06-20 19:43:00,
2013-06-20 13:52:00,96.0,34.0,29.97,WSW,240,10.0,28.0,11,-99.99,,,-99.99,917.690002,,2013-06-20 19:52:00,
2013-06-20 14:02:00,96.0,34.0,29.97,WSW,240,10.0,28.0,11,-99.99,,,-99.99,917.690002,,2013-06-20 20:02:00,
2013-06-20 14:11:00,96.0,34.0,29.97,WSW,240,10.0,28.0,11,-99.99,,,-99.99,917.690002,,2013-06-20 20:11:00,
2013-06-20 14:22:00,97.0,34.0,29.96,West,264,14.0,31.0,11,-99.99,,,-99.99,919.090027,,2013-06-20 20:22:00,
2013-06-20 14:33:00,97.0,34.0,29.96,West,264,14.0,31.0,11,-99.99,,,-99.99,919.090027,,2013-06-20 20:33:00,
2013-06-20 14:42:00,96.0,33.0,29.96,SW,215,6.0,19.0,11,-99.99,,,-99.99,702.210022,,2013-06-20 20:42:00,
2013-06-20 15:01:00,97.0,33.0,29.94,NW,320,4.0,9.0,10,-99.99,,,-99.99,729.409973,,2013-06-20 21:01:00,